{"data":{"norad_id":58849,"intl_designator":"2024-018A","name":"2024-018A","alt_names":[],"object_type":"PAYLOAD","status":"ACTIVE","operator":null,"country":"IRAN","launch_date":"2024-01-28","launch_site_code":"SEMLS","launch_vehicle":null,"mission":null,"orbit_class":"UNKNOWN","rcs_meters":null,"size_class":null,"mass_kg":null,"dimensions":null,"purposes":[],"wikipedia_slug":null,"has_3d_model":false,"image_url":null,"decayed_at":null,"tle_current":{"epoch":"2026-05-25T04:29:21.805152Z","epoch_age_seconds":65775,"freshness":"FRESH","line1":"1 58849U 24018A   26145.18705793  .00002313  00000+0  25948-3 0  9996","line2":"2 58849  58.6867 310.4211 0437674  78.8590 286.1305 14.39404997121869","mean_motion":14.39404997,"eccentricity":0.0437674,"inclination_deg":58.6867,"raan_deg":310.4211,"arg_perigee_deg":78.859,"mean_anomaly_deg":286.1305,"bstar":0.00025948,"rev_number":12186,"period_min":100.04133673297,"perigee_km":448.02697140672,"apogee_km":1072.9030716404,"semimajor_km":7138.6020215236,"source":"CELESTRAK","updated_at":"2026-05-25T13:38:01.010884Z"}}}